GW0092 Weather Reports


time (UTC)temp
F
wind
direction
speed
knots
gust
knots
rain 1hr
in
rain 24hr
in
rain mn
in
humidity
%
barometer
mb
20260901000108 73 0 0.0 0.0 0.01 0.23 0.23 100 1018.6
20260831234605 73 0 0.0 0.0 0.01 0.23 0.23 100 1018.6
20260831233101 73 0 0.0 0.0 0.01 0.23 0.23 100 1018.6
20260831231557 73 0 0.0 0.0 0.04 0.23 0.23 99 1018.7
20260831230108 73 0 0.0 0.9 0.04 0.22 0.22 99 1018.9
20260831224601 74 297 0.9 1.7 0.04 0.22 0.22 99 1019.0
20260831223055 74 0 0.0 0.0 0.05 0.22 0.22 99 1019.0
20260831221608 73 0 0.0 0.9 0.03 0.19 0.19 99 1019.2
20260831220128 74 338 0.9 2.6 0.05 0.18 0.18 99 1019.5
20260831214603 74 283 0.0 2.6 0.10 0.18 0.18 99 1019.4
20260831213106 75 339 0.9 1.7 0.10 0.17 0.17 98 1019.3
20260831211604 76 255 0.0 0.9 0.13 0.16 0.16 99 1019.3
20260831210103 77 0 0.0 0.0 0.13 0.13 0.13 98 1019.3
20260831204604 77 0 0.0 0.0 0.08 0.08 0.08 98 1019.4
20260831203135 77 0 0.0 0.9 0.07 0.07 0.07 96 1019.4
20260831201606 79 0 0.0 0.9 0.03 0.03 0.03 94 1018.8
20260831200106 82 0 0.0 0.9 0.00 0.00 0.00 87 1018.9
20260831194611 84 0 0.0 2.6 0.00 0.00 0.00 84 1018.8
20260831193102 83 153 0.0 2.6 0.00 0.00 0.00 86 1018.6
20260831191605 82 127 0.0 2.6 0.00 0.00 0.00 87 1018.7
20260831190138 83 0 0.0 1.7 0.00 0.00 0.00 85 1018.7
20260831184603 84 0 0.0 2.6 0.00 0.00 0.00 85 1018.7
20260831183059 83 162 0.0 2.6 0.00 0.00 0.00 87 1018.8
20260831181606 83 0 0.0 2.6 0.00 0.00 0.00 87 1019.1
20260831174602 82 115 0.9 1.7 0.00 0.00 0.00 87 1019.2
20260831173115 83 248 0.0 2.6 0.00 0.00 0.00 85 1019.3
20260831171607 83 249 0.0 4.3 0.00 0.00 0.00 87 1019.3
20260831170110 83 158 0.0 2.6 0.00 0.00 0.00 87 1019.2
20260831164604 84 146 0.9 2.6 0.00 0.00 0.00 85 1019.2
20260831163105 84 0 0.9 2.6 0.00 0.00 0.00 88 1019.6
20260831161607 84 152 0.9 2.6 0.00 0.00 0.00 86 1019.8
20260831160135 84 141 0.0 3.5 0.00 0.00 0.00 86 1019.6
20260831154628 84 158 0.9 3.5 0.00 0.00 0.00 87 1019.7
20260831153132 83 125 0.9 3.5 0.00 0.00 0.00 88 1019.8
20260831151602 83 93 0.0 1.7 0.00 0.00 0.00 89 1019.7
20260831150055 82 0 0.0 1.7 0.00 0.00 0.00 88 1019.8
20260831144607 82 127 0.0 2.6 0.00 0.00 0.00 90 1019.5
20260831143102 81 125 0.0 2.6 0.00 0.00 0.00 92 1019.7
20260831141601 80 0 0.0 0.9 0.00 0.00 0.00 94 1019.6
20260831140108 79 260 0.0 2.6 0.00 0.00 0.00 97 1019.5
20260831134609 78 300 0.9 3.5 0.00 0.00 0.00 98 1019.7
20260831133103 77 285 0.9 2.6 0.00 0.00 0.00 98 1019.8
20260831131604 77 0 0.0 0.0 0.00 0.00 0.00 99 1019.9
20260831130137 76 0 0.0 0.0 0.00 0.00 0.00 100 1019.9
20260831124604 76 0 0.0 0.9 0.00 0.00 0.00 100 1019.7
20260831123106 75 360 0.0 2.6 0.00 0.00 0.00 100 1019.5
20260831121556 75 354 0.0 0.9 0.00 0.00 0.00 100 1019.3
20260831120146 74 0 0.0 0.9 0.00 0.00 0.00 100 1019.3
20260831114603 73 0 0.0 0.0 0.00 0.00 0.00 100 1019.3
20260831113102 72 0 0.0 0.0 0.00 0.00 0.00 100 1019.3
20260831111559 72 0 0.0 0.0 0.00 0.00 0.00 100 1019.3
20260831110107 72 0 0.0 0.0 0.00 0.00 0.00 100 1019.3
20260831104600 72 0 0.0 0.0 0.00 0.00 0.00 100 1019.0
20260831103104 72 0 0.0 0.0 0.00 0.00 0.00 100 1018.8
20260831101621 72 0 0.0 0.9 0.00 0.00 0.00 100 1018.7
20260831100107 72 0 0.0 0.0 0.00 0.00 0.00 100 1018.6
20260831094609 73 0 0.0 0.0 0.00 0.00 0.00 100 1018.7
20260831093101 73 0 0.0 0.9 0.00 0.00 0.00 100 1018.7
20260831091559 72 0 0.0 0.0 0.00 0.00 0.00 100 1018.5
20260831090118 72 0 0.0 0.0 0.00 0.00 0.00 100 1018.5
20260831084558 72 0 0.0 0.0 0.00 0.00 0.00 99 1018.6
20260831083247 72 0 0.0 0.0 0.00 0.00 0.00 99 1018.4
20260831081605 73 0 0.0 0.0 0.00 0.00 0.00 99 1018.4
20260831080100 73 0 0.0 0.0 0.00 0.00 0.00 99 1018.6
20260831074557 72 0 0.0 0.0 0.00 0.00 0.00 99 1018.7
20260831073109 72 0 0.0 0.0 0.00 0.00 0.00 99 1018.9
20260831071608 72 0 0.0 0.0 0.00 0.00 0.00 99 1019.0
20260831070134 73 0 0.0 0.0 0.00 0.00 0.00 99 1019.1
20260831064604 73 0 0.0 0.0 0.00 0.00 0.00 99 1019.0
20260831063107 73 0 0.0 0.0 0.00 0.00 0.00 99 1019.1
20260831061610 73 0 0.0 0.0 0.00 0.00 0.00 99 1019.1
20260831060111 73 0 0.0 0.0 0.00 0.00 0.00 99 1019.1
20260831054554 73 0 0.0 0.0 0.00 0.00 0.00 99 1019.2
20260831053105 74 0 0.0 0.0 0.00 0.00 0.00 99 1019.1
20260831051618 74 0 0.0 0.0 0.00 0.00 0.00 98 1019.2
20260831050106 74 0 0.0 0.0 0.00 0.00 0.00 98 1019.2
20260831044604 74 0 0.0 0.9 0.00 0.00 0.00 98 1019.2
20260831043108 74 0 0.0 0.0 0.00 0.00 0.00 98 1019.2
20260831041559 74 0 0.0 0.0 0.00 0.00 0.00 98 1019.3
20260831040106 74 0 0.0 0.0 0.00 0.00 0.00 97 1019.2
20260831034556 75 0 0.0 0.0 0.00 0.00 0.00 97 1019.4
20260831033103 75 0 0.0 1.7 0.00 0.00 0.00 97 1019.7
20260831031558 75 0 0.0 0.9 0.00 0.00 0.00 97 1019.8
20260831024616 75 141 0.0 3.5 0.00 0.00 0.00 96 1019.9
20260831023055 75 0 0.0 0.0 0.00 0.00 0.00 96 1020.0
20260831021604 75 108 0.9 1.7 0.00 0.00 0.00 96 1020.1
20260831020103 75 0 0.0 0.0 0.00 0.00 0.00 96 1020.2
20260831014602 75 0 0.0 0.0 0.00 0.00 0.00 96 1020.2
20260831013056 75 0 0.0 0.9 0.00 0.00 0.00 96 1020.3
20260831011604 75 0 0.0 0.9 0.00 0.00 0.00 96 1020.3
20260831010130 75 0 0.0 0.9 0.00 0.00 0.00 96 1020.3
20260831004613 75 0 0.0 0.9 0.00 0.00 0.00 96 1020.1
20260831003110 75 0 0.0 1.7 0.00 0.00 0.00 95 1020.0
20260831001609 75 0 0.0 0.9 0.00 0.00 0.00 95 1020.0